{"data":{"norad_id":87320,"intl_designator":"","name":"UNKNOWN","alt_names":[],"object_type":"UNKNOWN","status":"UNKNOWN","operator":null,"country":null,"launch_date":null,"launch_site_code":null,"launch_vehicle":null,"mission":null,"orbit_class":"UNKNOWN","rcs_meters":null,"size_class":null,"mass_kg":null,"dimensions":null,"purposes":[],"wikipedia_slug":null,"has_3d_model":false,"image_url":null,"decayed_at":null,"tle_current":{"epoch":"2026-09-17T01:13:15.892896Z","epoch_age_seconds":312522,"freshness":"STALE","line1":"1 87320U          26260.05087839  .00000554  00000+0  37368-3 0  9999","line2":"2 87320  66.5922 139.7415 0424047 238.1184 117.7967 13.70886275631881","mean_motion":13.70886275,"eccentricity":0.0424047,"inclination_deg":66.5922,"raan_deg":139.7415,"arg_perigee_deg":238.1184,"mean_anomaly_deg":117.7967,"bstar":0.00037368,"rev_number":63188,"period_min":105.04153599466,"perigee_km":683.67624649795,"apogee_km":1309.1055320714,"semimajor_km":7374.5278892847,"source":"CELESTRAK","updated_at":"2026-09-20T09:00:32.454012Z"}}}